Location: Bernay
(48.6766°N, 2.9386°E)
Time: 06:29:30
(UTC+00:00)

PSLV R/B - Pass Details

Date: 12 January 2026
Orbit: 559 x 588 km, 98.0° (Epoch: 17 February)

Event Time Altitude Azimuth Distance (km) Brightness Sun altitude
Rises 17:49:44 0° 148° (SSE) 2,799 6.8 -14.9°
Reaches altitude 10° 17:51:56 10° 142° (SE) 1,907 5.8 -15.3°
Maximum altitude 17:55:53 45° 70° (ENE) 809 3.7 -15.9°
Drops below altitude 10° 17:59:53 10° 358° (N) 1,930 6.0 -16.5°
Sets 18:02:07 0° 352° (N) 2,837 6.9 -16.9°
